Weather History for Palmdale, CA

Change the Weather History Date:

Thursday, January 23, 2014

  Actual Average Record
Temperature  
Mean Temperature 49 °F 45 °F  
Max Temperature 66 °F 59 °F 78 °F (1970)
Min Temperature 32 °F 32 °F 11 °F (1937)
Degree Days  
Heating Degree Days 16 20  
Month to date heating degree days 362 469  
Since 1 July heating degree days 1498 1633  
Cooling Degree Days 0 0  
Month to date cooling degree days 0 0  
Year to date cooling degree days 0 0  
Moisture  
Dew Point 14 °F    
Average Humidity 28    
Maximum Humidity 44    
Minimum Humidity 12    
Precipitation  
Precipitation 0.00 in 0.04 in 2.40 in (1943)
Month to date precipitation 0.00 1.26  
Year to date precipitation 0.00 1.26  
Since 1 July precipitation 2.07 4.24  
Snow  
Snow 0.00 in - T in (1962)
Month to date snowfall 0.0  
Since 1 July snowfall 0.0  
Snow Depth 0.00 in    
Sea Level Pressure  
Sea Level Pressure 30.07 in    
Wind  
Wind Speed 7 mph (ESE)    
Max Wind Speed 23 mph    
Max Gust Speed 28 mph    
Visibility 10 miles    
Events      
T = Trace of Precipitation, MM = Missing Value Source: NWS Daily Summary

Daily Weather History Graph

Daily Weather History Graph

Search for Another Location

Airport:

Trip Planner

Search our weather history database for the weather conditions in past years. The results will help you decide how hot, cold, wet, or windy it might be!

Date:

Astronomy

Jan. 23, 2014 Rise Set
Actual Time 6:55 AM PST 5:12 PM PST
Civil Twilight 6:29 AM PST 5:39 PM PST
Nautical Twilight 5:58 AM PST 6:10 PM PST
Astronomical Twilight 5:28 AM PST 6:40 PM PST
Moon No Moon Rise 10:53 AM PST (1/23)
Length of Visible Light 11h 10m
Length of Day
10h 16m
Waning Gibbous, 54% of the Moon is Illuminated
Jan 23
Waning Gibbous
Jan 23
Last Quarter
Jan 30
New
Feb 6
First Quarter
Feb 14
Full

Hourly Weather History & Observations

Time (PST) Temp. Windchill Dew Point Humidity Pressure Visibility Wind Dir Wind Speed Gust Speed Precip Events Conditions
12:53 AM 41.0 °F - 18.0 °F 40% 29.94 in 10.0 mi Calm Calm - N/A   Clear
1:53 AM 39.0 °F 32.8 °F 16.0 °F 39% 29.94 in 10.0 mi SSW 9.2 mph - N/A   Clear
2:53 AM 37.9 °F 32.7 °F 15.1 °F 39% 29.93 in 10.0 mi SSW 6.9 mph - N/A   Clear
3:53 AM 39.0 °F - 14.0 °F 36% 29.92 in 10.0 mi Calm Calm - N/A   Clear
4:53 AM 35.1 °F - 15.1 °F 44% 29.97 in 10.0 mi Calm Calm - N/A   Clear
5:53 AM 35.1 °F - 14.0 °F 42% 30.01 in 10.0 mi Calm Calm - N/A   Clear
6:53 AM 32.0 °F 27.5 °F 12.9 °F 45% 30.05 in 10.0 mi NW 4.6 mph - N/A   Clear
7:53 AM 36.0 °F - 14.0 °F 41% 30.08 in 10.0 mi Calm Calm - N/A   Clear
8:53 AM 43.0 °F - 10.9 °F 27% 30.09 in 10.0 mi Calm Calm - N/A   Clear
9:53 AM 48.0 °F - 12.0 °F 24% 30.10 in 10.0 mi Calm Calm - N/A   Clear
10:53 AM 53.1 °F - 12.0 °F 20% 30.10 in 10.0 mi Variable 5.8 mph - N/A   Clear
11:53 AM 59.0 °F - 12.9 °F 16% 30.07 in 10.0 mi North 5.8 mph - N/A   Clear
12:53 PM 64.9 °F - 10.9 °F 12% 30.03 in 10.0 mi East 20.7 mph - N/A   Clear
1:53 PM 64.9 °F - 10.9 °F 12% 30.02 in 10.0 mi ENE 15.0 mph - N/A   Clear
2:53 PM 64.9 °F - 10.9 °F 12% 30.02 in 10.0 mi East 17.3 mph - N/A   Clear
3:53 PM 63.0 °F - 12.0 °F 14% 30.03 in 9.0 mi ENE 20.7 mph - N/A   Clear
4:53 PM 59.0 °F - 12.9 °F 16% 30.06 in 9.0 mi ENE 15.0 mph - N/A   Clear
5:53 PM 52.0 °F - 15.1 °F 23% 30.09 in 10.0 mi East 4.6 mph - N/A   Clear
6:53 PM 54.0 °F - 14.0 °F 21% 30.13 in 10.0 mi ESE 6.9 mph - N/A   Clear
7:53 PM 48.0 °F - 14.0 °F 26% 30.16 in 10.0 mi ESE 4.6 mph - N/A   Clear
8:53 PM 46.9 °F - 15.1 °F 28% 30.18 in 10.0 mi SE 10.4 mph - N/A   Clear
9:53 PM 44.1 °F 38.6 °F 15.1 °F 31% 30.21 in 10.0 mi SE 10.4 mph - N/A   Clear
10:53 PM 45.0 °F 42.6 °F 15.1 °F 30% 30.22 in 10.0 mi South 4.6 mph - N/A   Clear
11:53 PM 43.0 °F - 15.1 °F 32% 30.22 in 10.0 mi Calm Calm - N/A   Clear